Miscellaneous Local Product
Issued by NWS North Platte, NE

Home | Current Version | Previous Version | Graphics & Text | Print | Product List | Glossary On
Versions: 1 2 3 4 5 6 7 8 9 10 11 12 13 14 15 16 17 18 19 20 21 22 23 24 25 26 27 28 29 30 31 32 33 34 35 36 37 38 39 40 41 42 43 44 45 46 47 48 49 50
335
AXUS43 KLBF 060010
MISLBF


WESTERN AND NORTH CENTRAL NEBRASKA HOURLY WEATHER ROUNDUP
NATIONAL WEATHER SERVICE NORTH PLATTE NE
600 PM CST MON DEC 05 2016

NOTE: "FAIR" INDICATES FEW OR NO CLOUDS BELOW 12,000 FEET WITH NO
SIGNIFICANT WEATHER AND/OR OBSTRUCTIONS TO VISIBILITY.

NOTE: STATIONS NOT REPORTING VARIABLES SUCH AS SKY/WEATHER OR
PRESSURE ARE PROVIDED BY RAWS AND APRS NETWORKS AND ARE NOT UNDER
NATIONAL WEATHER SERVICE QUALITY CONTROL.

...OBSERVATIONS IN AND NEAR THE EASTERN PANHANDLE OF NEBRASKA...

CITY           SKY/WX    TMP DP  RH WIND       PRES   REMARKS
PINE RIDGE     FLURRIES  21  18  88 N9        29.83R WCI  11
CHADRON        PTCLDY    24  12  60 W15       29.88R WCI  11
ALLIANCE       CLEAR     23  11  60 NW22G31   29.80R WCI   8
SIDNEY         CLOUDY    26  12  55 N12       29.82R WCI  16
$$

...OBSERVATIONS IN NORTHERN NEBRASKA AND FAR SOUTHERN SOUTH DAKOTA...

CITY           SKY/WX    TMP DP  RH WIND       PRES   REMARKS
WINNER         MOCLDY    27  20  75 NW29G38   29.78R WCI  11
VALENTINE      PTCLDY    24  16  71 NW22G30   29.79R WCI   9
THEDFORD       CLOUDY    28  20  72 NW20G26   29.80R WCI  14
AINSWORTH      CLOUDY    28  21  75 NW22G29   29.80R WCI  13
O`NEILL        CLOUDY    32  25  74 NW22G30   29.77R WCI  19
ORD            CLOUDY    37  26  64 N24G33    29.75R WCI  26
BROKEN BOW     CLOUDY    32  24  72 N30G40    29.76R WCI  18
VALENTINE NWR    N/A     25  19  76 NW18G30     N/A  WCI  12
BUTTE            N/A     28  22  78 W30G40      N/A  WCI  12
HALSEY           N/A     28  16  61 NW15G26     N/A  WCI  16
CHAMBERS         N/A     32  22  67 S5G17       N/A  WCI  27
EWING            N/A     33  26  77 NW17G28     N/A  WCI  22
$$

...OBSERVATIONS IN SOUTHWEST NEBRASKA AND FAR NORTHEAST COLORADO...

CITY           SKY/WX    TMP DP  RH WIND       PRES   REMARKS
WRAY           MOCLDY    32  16  51 N16G35    29.81  WCI  21
HOLYOKE        FAIR      34  18  51 N18G24    29.83R WCI  23
IMPERIAL       CLOUDY    35  17  47 NW22G31   29.79R WCI  23
OGALLALA       MOCLDY    31  23  72 N20       29.83R WCI  19
NORTH PLATTE   CLOUDY    32  19  58 N17G33    29.81R WCI  21
MCCOOK         CLOUDY    46  19  34 MISG      29.71R
LEXINGTON      CLOUDY    43  30  60 N23G31    29.71R
STAPLETON        N/A     28  19  68 SE3G14      N/A
GOTHENBURG       N/A     33  23  66 NW21        N/A  WCI  21
CALLAWAY         N/A     31  24  73 N21         N/A  WCI  19
$$

...OBSERVATIONS IN CENTRAL LINCOLN COUNTY AREA...

CITY           SKY/WX    TMP DP  RH WIND       PRES   REMARKS
N.P. AIRPORT   CLOUDY    32  19  58 N17G33    29.81R WCI  21
N.P. DOWNTOWN    N/A     30  20  65 N17G28      N/A  WCI  18
N.P. SOUTHEAST   N/A     31  21  65 N12G24      N/A  WCI  22
N.P. HILLCREST   N/A     29  20  67 N26G35      N/A  WCI  14
$$

...SOME OBSERVATIONS FROM AROUND THE REGION...

CITY           SKY/WX    TMP DP  RH WIND       PRES   REMARKS
LARAMIE        CLOUDY    14  -9  35 W18G26    29.77R WCI  -3
CHEYENNE       CLOUDY    21  -7  28 NW22G30   29.81R WCI   5
DENVER         PTCLDY    27   4  37 N28G36    29.71R WCI  11
AKRON          CLEAR     26  10  50 N20       29.79R WCI  12
SCOTTSBLUFF    CLEAR     23  11  60 NW16G25   29.87R WCI  10
RAPID CITY     PTCLDY    21  13  71 NW23      29.82R WCI   5
BISMARCK       CLOUDY    19  16  88 NW28G38   29.68R BLWGSNOWWCI   1
PIERRE         LGT SNOW  26  17  68 NW35G43   29.77R WCI   9
SIOUX FALLS    MOCLDY    36  30  79 W15G28    29.63R WCI  27
OMAHA          MOCLDY    46  37  71 S13       29.67R
GRAND ISLAND   CLOUDY    45  36  70 NW8       29.69R
KANSAS CITY    CLEAR     42  31  64 SE8       29.74S
WICHITA        CLEAR     44  35  70 SE3       29.67R
OKLAHOMA CITY  PTCLDY    44  40  85 SE7       29.66S
DALLAS         CLOUDY    51  47  86 CALM      29.71S
AMARILLO       CLEAR     51  26  37 S10       29.57R
DODGE CITY     CLEAR     46  30  53 NE9       29.60R
HAYS           CLEAR     47  30  51 N10       29.65R
GOODLAND       CLEAR     39  -3  17 N21G36    29.73R WCI  29
$$




USA.gov is the U.S. government's official web portal to all federal, state and local government web resources and services.